Location: Austin
(30.3000°N, 97.7500°W)
Time: 01:04:14
(UTC-06:00)

Meteor 2-12 Rocket - Pass Details

Date: 03 April 2024
Orbit: 935 x 957 km, 82.5° (Epoch: 11 November)

Event Time Altitude Azimuth Distance (km) Brightness Sun altitude
Rises 06:28:00 0° 184° (S) 3,585 7.3 -11.3°
Reaches altitude 10° 06:30:29 10° 184° (S) 2,641 6.6 -10.7°
Maximum altitude 06:36:31 88° 95° (E) 940 4.5 -9.5°
Drops below altitude 10° 06:42:34 10° 7° (N) 2,648 7.0 -8.2°
Sets 06:45:03 0° 7° (N) 3,595 7.7 -7.7°
